Weather History for Egegik, AK

Change the Weather History Date:

Sunday, November 24, 2013

  Actual Average (PAKN) Record (PAKN)
Temperature  
Mean Temperature 32 °F 21 °F  
Max Temperature 39 °F 29 °F 46 °F (1947)
Min Temperature 26 °F 13 °F -27 °F (2005)
Degree Days  
Heating Degree Days 32 44  
Month to date heating degree days 997  
Since 1 July heating degree days 3109  
Cooling Degree Days 0    
Month to date cooling degree days  
Year to date cooling degree days  
Moisture  
Dew Point 33 °F    
Average Humidity 87    
Maximum Humidity 100    
Minimum Humidity 81    
Precipitation  
Precipitation 0.00 in 0.04 in 0.30 in (1929)
Month to date precipitation 1.13  
Year to date precipitation 18.00  
Snow  
Snow 0.00 in 0.30 in 2.00 in (2004)
Month to date snowfall 5.1  
Since 1 July snowfall 8.0  
Since 1 September snowfall 8.0  
Snow Depth -    
Sea Level Pressure  
Sea Level Pressure 29.71 in    
Wind  
Wind Speed 17 mph (ESE)    
Max Wind Speed 30 mph    
Max Gust Speed 38 mph    
Visibility 10 miles    
Events      
T = Trace of Precipitation, MM = Missing Value Source: NWS Daily Summary

Daily Weather History Graph

Daily Weather History Graph

Search for Another Location

Airport:

Trip Planner

Search our weather history database for the weather conditions in past years. The results will help you decide how hot, cold, wet, or windy it might be!

Date:

Astronomy

Nov. 24, 2013 Rise Set
Actual Time 9:37 AM AKST 4:54 PM AKST
Civil Twilight 8:49 AM AKST 5:42 PM AKST
Nautical Twilight 7:59 AM AKST 6:32 PM AKST
Astronomical Twilight 7:12 AM AKST 7:20 PM AKST
Moon No Moon Rise 1:47 PM AKST (11/24)
Length of Visible Light 8h 52m
Length of Day
7h 16m
Waning Gibbous, 59% of the Moon is Illuminated
Nov 24
Waning Gibbous
Nov 25
Last Quarter
Dec 2
New
Dec 9
First Quarter
Dec 17
Full

Hourly Weather History & Observations

Time (AKST) Temp. Windchill Dew Point Humidity Pressure Visibility Wind Dir Wind Speed Gust Speed Precip Events Conditions
12:16 AM 26.6 °F 19.1 °F 23.0 °F 86% 29.83 in 9.0 mi ENE 6.9 mph - N/A   Mostly Cloudy
12:36 AM 28.4 °F 21.2 °F 26.6 °F 93% 29.83 in 10.0 mi ENE 6.9 mph - N/A   Overcast
12:56 AM 28.4 °F 20.4 °F 26.6 °F 93% 29.82 in 10.0 mi NE 8.1 mph - N/A   Overcast
1:16 AM 28.4 °F 20.4 °F 26.6 °F 93% 29.82 in 10.0 mi ENE 8.1 mph - N/A   Overcast
1:36 AM 30.2 °F 21.3 °F 28.4 °F 93% 29.81 in 10.0 mi ENE 10.4 mph - N/A   Overcast
1:56 AM 32.0 °F 23.6 °F 30.2 °F 93% 29.81 in 10.0 mi ENE 10.4 mph - N/A   Overcast
2:16 AM 30.2 °F 20.2 °F 30.2 °F 100% 29.79 in 10.0 mi ENE 12.7 mph - N/A   Overcast
2:36 AM 30.2 °F 20.2 °F 28.4 °F 93% 29.79 in 10.0 mi ENE 12.7 mph 17.3 mph N/A   Overcast
2:56 AM 32.0 °F 22.5 °F 28.4 °F 87% 29.78 in 10.0 mi ENE 12.7 mph - N/A   Overcast
3:16 AM 32.0 °F 21.6 °F 28.4 °F 87% 29.78 in 10.0 mi ENE 15.0 mph 18.4 mph N/A   Overcast
3:36 AM 33.8 °F 25.3 °F 28.4 °F 81% 29.77 in 10.0 mi ENE 11.5 mph - N/A   Overcast
3:56 AM 33.8 °F 25.8 °F 30.2 °F 87% 29.77 in 10.0 mi ENE 10.4 mph - N/A   Overcast
4:16 AM 35.6 °F 28.0 °F 32.0 °F 87% 29.76 in 10.0 mi East 10.4 mph - N/A   Overcast
4:36 AM 35.6 °F 26.6 °F 33.8 °F 93% 29.75 in 10.0 mi ESE 13.8 mph 20.7 mph N/A   Overcast
4:56 AM 35.6 °F 25.9 °F 33.8 °F 93% 29.74 in 10.0 mi East 16.1 mph 23.0 mph N/A   Overcast
5:16 AM 35.6 °F 25.2 °F 33.8 °F 93% 29.74 in 10.0 mi ESE 18.4 mph 25.3 mph N/A   Overcast
5:36 AM 35.6 °F 25.5 °F 33.8 °F 93% 29.73 in 10.0 mi ESE 17.3 mph - N/A   Overcast
5:56 AM 35.6 °F 24.2 °F 33.8 °F 93% 29.72 in 10.0 mi ESE 21.9 mph 27.6 mph N/A   Overcast
6:16 AM 37.4 °F 26.4 °F 33.8 °F 87% 29.71 in 10.0 mi ESE 23.0 mph 32.2 mph N/A   Overcast
6:36 AM 37.4 °F 26.9 °F 33.8 °F 87% 29.71 in 10.0 mi ESE 20.7 mph 27.6 mph N/A   Overcast
6:56 AM 37.4 °F 26.1 °F 33.8 °F 87% 29.70 in 10.0 mi ESE 24.2 mph 29.9 mph N/A   Mostly Cloudy
7:16 AM 37.4 °F 26.1 °F 33.8 °F 87% 29.69 in 10.0 mi ESE 24.2 mph 31.1 mph N/A   Overcast
7:36 AM 37.4 °F 26.1 °F 33.8 °F 87% 29.69 in 10.0 mi ESE 24.2 mph 32.2 mph N/A   Mostly Cloudy
7:56 AM 37.4 °F 25.9 °F 33.8 °F 87% 29.68 in 10.0 mi ESE 25.3 mph 34.5 mph N/A   Mostly Cloudy
8:16 AM 37.4 °F 25.4 °F 33.8 °F 87% 29.68 in 10.0 mi ESE 27.6 mph 35.7 mph N/A   Overcast
8:36 AM 37.4 °F 26.1 °F 33.8 °F 87% 29.68 in 10.0 mi ESE 24.2 mph 32.2 mph N/A   Overcast
8:56 AM 37.4 °F 26.6 °F 33.8 °F 87% 29.69 in 10.0 mi ESE 21.9 mph 31.1 mph N/A   Overcast
9:16 AM 37.4 °F 26.4 °F 33.8 °F 87% 29.69 in 10.0 mi ESE 23.0 mph 31.1 mph N/A   Overcast
9:36 AM 37.4 °F 25.6 °F 33.8 °F 87% 29.68 in 10.0 mi ESE 26.5 mph 34.5 mph N/A   Overcast
9:56 AM 37.4 °F 25.6 °F 33.8 °F 87% 29.68 in 10.0 mi ESE 26.5 mph 33.4 mph N/A   Overcast
10:16 AM 37.4 °F 26.1 °F 33.8 °F 87% 29.68 in 10.0 mi ESE 24.2 mph 33.4 mph N/A   Overcast
10:36 AM 37.4 °F 25.9 °F 33.8 °F 87% 29.68 in 10.0 mi ESE 25.3 mph 34.5 mph N/A   Mostly Cloudy
10:56 AM 37.4 °F 26.1 °F 33.8 °F 87% 29.69 in 10.0 mi ESE 24.2 mph 31.1 mph N/A   Mostly Cloudy
11:16 AM 37.4 °F 26.1 °F 33.8 °F 87% 29.68 in 10.0 mi ESE 24.2 mph 31.1 mph N/A   Overcast
11:36 AM 37.4 °F 26.4 °F 33.8 °F 87% 29.68 in 10.0 mi ESE 23.0 mph 29.9 mph N/A   Mostly Cloudy
11:56 AM 37.4 °F 26.1 °F 33.8 °F 87% 29.68 in 10.0 mi ESE 24.2 mph 32.2 mph N/A   Partly Cloudy
12:16 PM 37.4 °F 25.4 °F 33.8 °F 87% 29.67 in 10.0 mi ESE 27.6 mph 33.4 mph N/A   Scattered Clouds
12:36 PM 37.4 °F 25.0 °F 33.8 °F 87% 29.66 in 10.0 mi ESE 29.9 mph 38.0 mph N/A   Mostly Cloudy
12:56 PM 37.4 °F 25.6 °F 33.8 °F 87% 29.68 in 10.0 mi ESE 26.5 mph 36.8 mph N/A   Overcast
1:16 PM 37.4 °F 25.6 °F 33.8 °F 87% 29.68 in 10.0 mi ESE 26.5 mph 34.5 mph N/A   Overcast
1:36 PM 37.4 °F 25.9 °F 33.8 °F 87% 29.68 in 10.0 mi ESE 25.3 mph 33.4 mph N/A   Overcast
1:56 PM 37.4 °F 26.4 °F 33.8 °F 87% 29.68 in 10.0 mi ESE 23.0 mph 29.9 mph N/A   Overcast
2:16 PM 37.4 °F 26.1 °F 33.8 °F 87% 29.68 in 10.0 mi ESE 24.2 mph 28.8 mph N/A   Mostly Cloudy
2:36 PM 37.4 °F 26.6 °F 33.8 °F 87% 29.68 in 10.0 mi ESE 21.9 mph 26.5 mph N/A   Mostly Cloudy
2:56 PM 37.4 °F 27.5 °F 33.8 °F 87% 29.68 in 10.0 mi ESE 18.4 mph 26.5 mph N/A   Overcast
3:16 PM 37.4 °F 27.5 °F 33.8 °F 87% 29.68 in 10.0 mi East 18.4 mph 26.5 mph N/A   Overcast
3:36 PM 37.4 °F 27.2 °F 33.8 °F 87% 29.68 in 10.0 mi East 19.6 mph - N/A   Overcast
3:56 PM 37.4 °F 26.4 °F 33.8 °F 87% 29.67 in 10.0 mi ESE 23.0 mph 28.8 mph N/A   Mostly Cloudy
4:16 PM 37.4 °F 26.6 °F 33.8 °F 87% 29.67 in 10.0 mi ESE 21.9 mph 28.8 mph N/A   Mostly Cloudy
4:36 PM 37.4 °F 28.5 °F 33.8 °F 87% 29.69 in 10.0 mi East 15.0 mph 23.0 mph N/A   Overcast
4:56 PM 37.4 °F 28.2 °F 33.8 °F 87% 29.69 in 10.0 mi East 16.1 mph 20.7 mph N/A   Overcast
5:16 PM 37.4 °F 27.8 °F 33.8 °F 87% 29.68 in 10.0 mi ESE 17.3 mph 24.2 mph N/A   Overcast
5:36 PM 37.4 °F 26.9 °F 33.8 °F 87% 29.68 in 10.0 mi ESE 20.7 mph 27.6 mph N/A   Overcast
5:56 PM 37.4 °F 27.5 °F 33.8 °F 87% 29.69 in 10.0 mi ESE 18.4 mph 27.6 mph N/A   Overcast
6:16 PM 37.4 °F 27.8 °F 33.8 °F 87% 29.68 in 10.0 mi East 17.3 mph - N/A   Overcast
6:36 PM 37.4 °F 28.5 °F 33.8 °F 87% 29.69 in 10.0 mi ESE 15.0 mph 23.0 mph N/A   Mostly Cloudy
6:56 PM 37.4 °F 26.9 °F 33.8 °F 87% 29.68 in 10.0 mi ESE 20.7 mph 25.3 mph N/A   Mostly Cloudy
7:16 PM 37.4 °F 27.5 °F 33.8 °F 87% 29.68 in 10.0 mi ESE 18.4 mph 26.5 mph N/A   Partly Cloudy
7:36 PM 37.4 °F 26.6 °F 33.8 °F 87% 29.68 in 10.0 mi ESE 21.9 mph 27.6 mph N/A   Scattered Clouds
7:56 PM 37.4 °F 27.5 °F 33.8 °F 87% 29.68 in 10.0 mi ESE 18.4 mph 27.6 mph N/A   Overcast
8:16 PM 39.2 °F 29.3 °F 33.8 °F 81% 29.68 in 10.0 mi ESE 20.7 mph 29.9 mph N/A   Overcast
8:36 PM 37.4 °F 26.6 °F 33.8 °F 87% 29.68 in 10.0 mi ESE 21.9 mph 28.8 mph N/A   Overcast
8:56 PM 37.4 °F 26.6 °F 33.8 °F 87% 29.67 in 10.0 mi ESE 21.9 mph 28.8 mph N/A   Overcast
9:16 PM 39.2 °F 29.0 °F 33.8 °F 81% 29.67 in 10.0 mi ESE 21.9 mph 29.9 mph N/A   Overcast
9:36 PM 39.2 °F 29.6 °F 33.8 °F 81% 29.68 in 10.0 mi ESE 19.6 mph 26.5 mph N/A   Overcast
9:56 PM 37.4 °F 26.6 °F 33.8 °F 87% 29.68 in 10.0 mi ESE 21.9 mph 28.8 mph N/A   Overcast
10:16 PM 39.2 °F 28.5 °F 33.8 °F 81% 29.67 in 10.0 mi ESE 24.2 mph 33.4 mph N/A   Overcast
10:36 PM 39.2 °F 28.7 °F 33.8 °F 81% 29.68 in 10.0 mi ESE 23.0 mph 31.1 mph N/A   Overcast
10:56 PM 39.2 °F 28.7 °F 33.8 °F 81% 29.68 in 10.0 mi ESE 23.0 mph 29.9 mph N/A   Overcast
11:16 PM 39.2 °F 29.0 °F 33.8 °F 81% 29.68 in 10.0 mi ESE 21.9 mph 25.3 mph N/A   Overcast
11:36 PM 39.2 °F 29.0 °F 33.8 °F 81% 29.68 in 10.0 mi ESE 21.9 mph 26.5 mph N/A   Overcast
11:56 PM 39.2 °F 29.3 °F 33.8 °F 81% 29.69 in 10.0 mi ESE 20.7 mph 26.5 mph N/A   Overcast